Weather History for Easton, MD

Change the Weather History Date:

Tuesday, October 18, 2011

  Actual Average Record
Temperature  
Mean Temperature 62 °F -  
Max Temperature 75 °F 65 °F 87 °F (1963)
Min Temperature 50 °F 46 °F 35 °F (1973)
Degree Days  
Heating Degree Days 2    
Growing Degree Days 12 (Base 50)    
Moisture  
Dew Point 54 °F    
Average Humidity 89    
Maximum Humidity 100    
Minimum Humidity 41    
Precipitation  
Precipitation 0.00 in - - ()
Sea Level Pressure  
Sea Level Pressure 29.86 in    
Wind  
Wind Speed 1 mph (ESE)    
Max Wind Speed 9 mph    
Max Gust Speed -    
Visibility 10 miles    
Events      
Averages and records for this station are not official NWS values.
T = Trace of Precipitation, MM = Missing Value Source: NWS Daily Summary

Daily Weather History Graph

Daily Weather History Graph

Search for Another Location

Airport:

Trip Planner

Search our weather history database for the weather conditions in past years. The results will help you decide how hot, cold, wet, or windy it might be!

Date:

Astronomy

Oct. 18, 2011 Rise Set
Actual Time 7:16 AM EDT 6:22 PM EDT
Civil Twilight 6:49 AM EDT 6:48 PM EDT
Nautical Twilight 6:18 AM EDT 7:19 PM EDT
Astronomical Twilight 5:47 AM EDT 7:50 PM EDT
Moon 11:02 PM EDT (10/18) 1:03 PM EDT (10/18)
Length of Visible Light 11h 59m
Length of Day
11h 05m
Waning Gibbous, 65% of the Moon is Illuminated
Oct 18
Waning Gibbous
Oct 19
Last Quarter
Oct 26
New
Nov 2
First Quarter
Nov 10
Full

Hourly Weather History & Observations

Time (EDT) Temp. Dew Point Humidity Pressure Visibility Wind Dir Wind Speed Gust Speed Precip Events Conditions
12:15 AM 53.6 °F 53.6 °F 100% 29.87 in 10.0 mi Calm Calm - N/A   Clear
12:36 AM 53.6 °F 53.6 °F 100% 29.86 in 10.0 mi Calm Calm - N/A   Clear
12:57 AM 51.8 °F 51.8 °F 100% 29.85 in 10.0 mi Calm Calm - N/A   Clear
1:18 AM 51.8 °F 51.8 °F 100% 29.85 in 10.0 mi Calm Calm - N/A   Clear
1:42 AM 51.8 °F 51.8 °F 100% 29.85 in 10.0 mi Calm Calm - N/A   Clear
2:03 AM 51.8 °F 51.8 °F 100% 29.85 in 10.0 mi Calm Calm - N/A   Scattered Clouds
2:24 AM 53.6 °F 53.6 °F 100% 29.85 in 10.0 mi Calm Calm - N/A   Scattered Clouds
2:45 AM 51.8 °F 51.8 °F 100% 29.85 in 10.0 mi Calm Calm - N/A   Scattered Clouds
3:06 AM 51.8 °F 51.8 °F 100% 29.85 in 10.0 mi Calm Calm - N/A   Scattered Clouds
3:27 AM 51.8 °F 51.8 °F 100% 29.85 in 10.0 mi Calm Calm - N/A   Scattered Clouds
3:48 AM 51.8 °F 51.8 °F 100% 29.86 in 10.0 mi Calm Calm - N/A   Clear
4:09 AM 51.8 °F 51.8 °F 100% 29.86 in 10.0 mi NNE 3.5 mph - N/A   Clear
4:30 AM 51.8 °F 51.8 °F 100% 29.86 in 10.0 mi Calm Calm - N/A   Clear
4:54 AM 51.8 °F 51.8 °F 100% 29.87 in 10.0 mi Calm Calm - N/A   Clear
5:15 AM 51.8 °F 51.8 °F 100% 29.87 in 10.0 mi Calm Calm - N/A   Clear
5:36 AM 51.8 °F 51.8 °F 100% 29.87 in 10.0 mi Calm Calm - N/A   Clear
5:45 AM 51.8 °F 51.8 °F 100% 29.88 in 10.0 mi Calm Calm - N/A   Scattered Clouds
5:57 AM 51.8 °F 51.8 °F 100% 29.88 in 10.0 mi Calm Calm - N/A   Clear
6:15 AM 50.0 °F 50.0 °F 100% 29.88 in 10.0 mi Calm Calm - N/A   Clear
6:50 AM 51.8 °F 51.8 °F 100% 29.88 in 10.0 mi Calm Calm - N/A   Scattered Clouds
7:50 AM 53.6 °F 53.6 °F 100% 29.90 in 10.0 mi Calm Calm - N/A   Scattered Clouds
8:50 AM 57.2 °F 57.2 °F 100% 29.90 in 10.0 mi ESE 3.5 mph - N/A   Mostly Cloudy
9:45 AM 60.8 °F 59.0 °F 94% 29.90 in 10.0 mi Calm Calm - N/A   Scattered Clouds
10:45 AM 68.0 °F 59.0 °F 73% 29.90 in 10.0 mi SE 6.9 mph - N/A   Scattered Clouds
12:50 PM 71.6 °F 55.4 °F 57% 29.88 in 10.0 mi SE 5.8 mph - N/A   Mostly Cloudy
1:50 PM 75.2 °F 55.4 °F 50% 29.86 in 10.0 mi SE 5.8 mph - N/A   Mostly Cloudy
2:53 PM 73.4 °F 50.0 °F 44% 29.84 in 10.0 mi ESE 9.2 mph - N/A   Mostly Cloudy
3:53 PM 73.4 °F 48.2 °F 41% 29.83 in 10.0 mi ESE 6.9 mph - N/A   Mostly Cloudy
4:53 PM 73.4 °F 48.2 °F 41% 29.80 in 10.0 mi ESE 6.9 mph - N/A   Scattered Clouds
5:53 PM 69.8 °F 53.6 °F 56% 29.83 in 10.0 mi ESE 6.9 mph - N/A   Clear
6:53 PM 64.4 °F 55.4 °F 73% 29.84 in 10.0 mi ESE 5.8 mph - N/A   Clear
7:53 PM 62.6 °F 55.4 °F 77% 29.86 in 10.0 mi ESE 5.8 mph - N/A   Clear
10:33 PM 60.8 °F 60.8 °F 100% 29.84 in 10.0 mi East 4.6 mph - N/A   Clear
10:54 PM 60.8 °F 60.8 °F 100% 29.84 in 10.0 mi East 3.5 mph - N/A   Clear
11:12 PM 60.8 °F 60.8 °F 100% 29.84 in 10.0 mi Calm Calm - N/A   Clear
11:33 PM 60.8 °F 60.8 °F 100% 29.82 in 10.0 mi East 3.5 mph - N/A   Clear
11:51 PM 60.8 °F 60.8 °F 100% 29.82 in 10.0 mi Calm Calm - N/A   Clear